Weather History for Mena, AR

Change the Weather History Date:

Sunday, January 13, 2013

  Actual Average (KFSM) Record (KFSM)
Temperature  
Mean Temperature 32 °F -  
Max Temperature 37 °F 48 °F 75 °F (1932)
Min Temperature 28 °F 28 °F -3 °F (1918)
Degree Days  
Heating Degree Days 32    
Moisture  
Dew Point 30 °F    
Average Humidity 84    
Maximum Humidity 100    
Minimum Humidity 65    
Precipitation  
Precipitation 0.00 in - - ()
Sea Level Pressure  
Sea Level Pressure 30.09 in    
Wind  
Wind Speed 6 mph (NNW)    
Max Wind Speed 13 mph    
Max Gust Speed 20 mph    
Visibility 10 miles    
Events      
Averages and records for this station are not official NWS values.
T = Trace of Precipitation, MM = Missing Value Source: NWS Daily Summary

Daily Weather History Graph

Daily Weather History Graph

Search for Another Location

Airport:

Trip Planner

Search our weather history database for the weather conditions in past years. The results will help you decide how hot, cold, wet, or windy it might be!

Date:

Astronomy

Jan. 13, 2013 Rise Set
Actual Time 7:23 AM CST 5:27 PM CST
Civil Twilight 6:56 AM CST 5:55 PM CST
Nautical Twilight 6:25 AM CST 6:26 PM CST
Astronomical Twilight 5:54 AM CST 6:56 PM CST
Moon 8:29 AM CST (1/13) 7:58 PM CST (1/13)
Length of Visible Light 10h 59m
Length of Day
10h 04m
Waxing Crescent, 5% of the Moon is Illuminated
Jan 13
Waxing Crescent
Jan 18
First Quarter
Jan 26
Full
Feb 3
Last Quarter
Feb 10
New

Hourly Weather History & Observations

Time (CST) Temp. Windchill Dew Point Humidity Pressure Visibility Wind Dir Wind Speed Gust Speed Precip Events Conditions
12:35 AM 37.4 °F 29.3 °F 37.4 °F 100% 29.86 in 10.0 mi North 12.7 mph 19.6 mph N/A   Overcast
1:15 AM 37.4 °F 31.4 °F 37.4 °F 100% 29.87 in 10.0 mi North 8.1 mph - N/A   Overcast
1:35 AM 37.4 °F 31.4 °F 35.6 °F 93% 29.89 in 10.0 mi North 8.1 mph - N/A   Overcast
1:55 AM 37.4 °F 32.8 °F 35.6 °F 93% 29.90 in 10.0 mi NNW 5.8 mph - N/A   Overcast
2:15 AM 37.4 °F 32.1 °F 35.6 °F 93% 29.90 in 10.0 mi North 6.9 mph - N/A   Overcast
2:35 AM 37.4 °F 31.4 °F 35.6 °F 93% 29.91 in 10.0 mi North 8.1 mph - N/A   Overcast
2:55 AM 37.4 °F 32.1 °F 35.6 °F 93% 29.90 in 10.0 mi North 6.9 mph - N/A   Overcast
3:15 AM 37.4 °F - 35.6 °F 93% 29.91 in 10.0 mi Calm Calm - N/A   Overcast
3:35 AM 37.4 °F - 37.4 °F 100% 29.92 in 10.0 mi Calm Calm - N/A   Overcast
4:15 AM 37.4 °F 32.1 °F 35.6 °F 93% 29.96 in 10.0 mi NNW 6.9 mph - N/A   Overcast
4:35 AM 37.4 °F 34.9 °F 35.6 °F 93% 29.98 in 10.0 mi NNW 3.5 mph - N/A   Overcast
4:55 AM 37.4 °F - 35.6 °F 93% 29.98 in 10.0 mi Calm Calm - N/A   Overcast
5:15 AM 35.6 °F 29.2 °F 35.6 °F 100% 29.97 in 10.0 mi NNW 8.1 mph 17.3 mph N/A   Overcast
5:35 AM 35.6 °F 28.6 °F 35.6 °F 100% 30.00 in 10.0 mi North 9.2 mph - N/A   Overcast
5:55 AM 35.6 °F - 33.8 °F 93% 29.98 in 10.0 mi Calm Calm - N/A   Overcast
6:15 AM 35.6 °F - 33.8 °F 93% 29.96 in 10.0 mi Calm Calm - N/A   Overcast
6:35 AM 35.6 °F 32.8 °F 33.8 °F 93% 29.98 in 10.0 mi North 3.5 mph - N/A   Overcast
6:55 AM 35.6 °F - 33.8 °F 93% 29.98 in 7.0 mi Calm Calm - N/A   Overcast
7:15 AM 35.6 °F - 33.8 °F 93% 30.02 in 10.0 mi Calm Calm - N/A   Overcast
7:35 AM 35.6 °F - 33.8 °F 93% 30.02 in 7.0 mi Calm Calm - N/A   Overcast
7:55 AM 35.6 °F - 33.8 °F 93% 30.05 in 10.0 mi Calm Calm - N/A   Overcast
8:15 AM 35.6 °F 31.7 °F 33.8 °F 93% 30.04 in 10.0 mi North 4.6 mph - N/A   Overcast
8:35 AM 35.6 °F - 33.8 °F 93% 30.06 in 10.0 mi Calm Calm - N/A   Overcast
8:55 AM 33.8 °F 29.6 °F 32.0 °F 93% 30.08 in 10.0 mi WNW 4.6 mph - N/A   Overcast
9:15 AM 33.8 °F - 32.0 °F 93% 30.09 in 10.0 mi Calm Calm - N/A   Overcast
9:35 AM 33.8 °F - 32.0 °F 93% 30.09 in 10.0 mi Calm Calm - N/A   Overcast
9:55 AM 33.8 °F - 32.0 °F 93% 30.09 in 10.0 mi Calm Calm - N/A   Overcast
10:15 AM 33.8 °F - 32.0 °F 93% 30.10 in 10.0 mi Calm Calm - N/A   Overcast
10:35 AM 33.8 °F - 32.0 °F 93% 30.12 in 10.0 mi Calm Calm - N/A   Overcast
10:55 AM 35.6 °F - 30.2 °F 81% 30.11 in 10.0 mi Calm Calm - N/A   Mostly Cloudy
11:15 AM 35.6 °F - 30.2 °F 81% 30.11 in 10.0 mi Calm Calm - N/A   Overcast
12:15 PM 35.6 °F 30.7 °F 30.2 °F 81% 30.12 in 10.0 mi North 5.8 mph - N/A   Overcast
12:35 PM 33.8 °F 27.0 °F 30.2 °F 87% 30.12 in 10.0 mi North 8.1 mph - N/A   Mostly Cloudy
12:55 PM 35.6 °F 28.0 °F 30.2 °F 81% 30.12 in 10.0 mi North 10.4 mph - N/A   Scattered Clouds
1:15 PM 35.6 °F 28.6 °F 30.2 °F 81% 30.12 in 10.0 mi North 9.2 mph - N/A   Clear
1:35 PM 37.4 °F 30.3 °F 30.2 °F 75% 30.13 in 10.0 mi North 10.4 mph 18.4 mph N/A   Clear
1:55 PM 37.4 °F 29.8 °F 30.2 °F 75% 30.13 in 10.0 mi North 11.5 mph 16.1 mph N/A   Clear
2:15 PM 35.6 °F 27.1 °F 28.4 °F 75% 30.14 in 10.0 mi North 12.7 mph 19.6 mph N/A   Clear
2:35 PM 35.6 °F 28.0 °F 28.4 °F 75% 30.15 in 10.0 mi North 10.4 mph - N/A   Clear
2:55 PM 35.6 °F 28.6 °F 28.4 °F 75% 30.15 in 10.0 mi North 9.2 mph 17.3 mph N/A   Clear
3:15 PM 37.4 °F 29.3 °F 28.4 °F 70% 30.16 in 10.0 mi NW 12.7 mph 18.4 mph N/A   Clear
3:35 PM 37.4 °F 30.3 °F 28.4 °F 70% 30.17 in 10.0 mi NNW 10.4 mph 16.1 mph N/A   Clear
3:55 PM 37.4 °F 29.8 °F 28.4 °F 70% 30.17 in 10.0 mi NNW 11.5 mph - N/A   Clear
4:15 PM 37.4 °F 32.8 °F 28.4 °F 70% 30.17 in 10.0 mi NW 5.8 mph - N/A   Clear
4:35 PM 37.4 °F 30.8 °F 26.6 °F 65% 30.17 in 10.0 mi NNW 9.2 mph - N/A   Clear
4:55 PM 35.6 °F 30.7 °F 26.6 °F 70% 30.18 in 10.0 mi NNW 5.8 mph - N/A   Clear
5:15 PM 35.6 °F 29.9 °F 26.6 °F 70% 30.19 in 10.0 mi NW 6.9 mph - N/A   Clear
5:35 PM 33.8 °F 29.6 °F 26.6 °F 75% 30.19 in 10.0 mi NW 4.6 mph - N/A   Clear
5:55 PM 33.8 °F 27.7 °F 26.6 °F 75% 30.20 in 10.0 mi NW 6.9 mph - N/A   Clear
6:15 PM 33.8 °F 27.7 °F 24.8 °F 70% 30.21 in 10.0 mi NW 6.9 mph - N/A   Clear
6:35 PM 32.0 °F 26.4 °F 24.8 °F 75% 30.21 in 10.0 mi NNW 5.8 mph - N/A   Clear
6:55 PM 32.0 °F 25.6 °F 23.0 °F 69% 30.21 in 10.0 mi NW 6.9 mph - N/A   Clear
7:15 PM 32.0 °F 28.7 °F 23.0 °F 69% 30.21 in 10.0 mi NW 3.5 mph - N/A   Clear
7:55 PM 32.0 °F - 23.0 °F 69% 30.22 in 10.0 mi Calm Calm - N/A   Clear
8:15 PM 32.0 °F 28.7 °F 23.0 °F 69% 30.22 in 10.0 mi NW 3.5 mph - N/A   Clear
8:35 PM 30.2 °F - 23.0 °F 75% 30.23 in 10.0 mi Calm Calm - N/A   Clear
9:15 PM 30.2 °F - 23.0 °F 75% 30.22 in 10.0 mi Calm Calm - N/A   Clear
9:55 PM 30.2 °F - 23.0 °F 75% 30.24 in 10.0 mi Calm Calm - N/A   Clear
10:15 PM 28.4 °F - 23.0 °F 80% 30.25 in 10.0 mi Calm Calm - N/A   Clear
10:55 PM 28.4 °F 24.6 °F 23.0 °F 80% 30.26 in 10.0 mi NE 3.5 mph - N/A   Clear
11:35 PM 30.2 °F 23.4 °F 21.2 °F 69% 30.27 in 10.0 mi NNE 6.9 mph - N/A   Clear
11:55 PM 30.2 °F 24.3 °F 21.2 °F 69% 30.27 in 10.0 mi NE 5.8 mph - N/A   Clear